Time,TemperatureF,DewpointF,PressureIn,WindDirection,WindDirectionDegrees,WindSpeedMPH,WindSpeedGustMPH,Humidity,HourlyPrecipIn,Conditions,Clouds,dailyrainin,SoftwareType,DateUTC
2013-05-30 00:00:00,65.3,61.0,29.68,SE,135,15.0,21.0,86,0.00,,,0.03,VWS V15.00,2013-05-30 05:00:00,
2013-05-30 00:03:00,64.2,61.2,29.65,SSE,152,15.0,24.0,90,0.00,,SCT120,0.00,VWS V14.01,2013-05-30 05:03:00,
2013-05-30 00:08:00,64.0,61.3,29.65,SSE,155,12.0,24.0,91,0.00,,SCT120,0.00,VWS V14.01,2013-05-30 05:08:00,
2013-05-30 00:13:00,63.9,61.5,29.65,SSE,149,22.0,24.0,92,0.02,,SCT120,0.02,VWS V14.01,2013-05-30 05:13:00,
2013-05-30 00:15:00,65.0,60.7,29.66,SE,137,15.0,19.0,86,0.00,,,0.03,VWS V15.00,2013-05-30 05:15:00,
2013-05-30 00:18:00,63.5,61.1,29.64,SE,143,18.0,24.0,92,0.03,,SCT120,0.03,VWS V14.01,2013-05-30 05:18:00,
2013-05-30 00:23:00,63.5,61.4,29.64,SSE,150,21.0,24.0,93,0.04,,SCT120,0.04,VWS V14.01,2013-05-30 05:23:00,
2013-05-30 00:28:00,63.4,61.7,29.64,SSE,151,17.0,24.0,94,0.04,,SCT120,0.04,VWS V14.01,2013-05-30 05:28:00,
2013-05-30 00:30:00,65.0,61.0,29.65,SE,144,13.0,21.0,87,0.00,,,0.03,VWS V15.00,2013-05-30 05:30:00,
2013-05-30 00:33:00,63.5,61.8,29.64,SSE,152,15.0,28.0,94,0.04,,-RA,0.04,VWS V14.01,2013-05-30 05:33:00,
2013-05-30 00:38:00,63.4,61.7,29.64,SSE,158,17.0,28.0,94,0.04,,-RA,0.04,VWS V14.01,2013-05-30 05:38:00,
2013-05-30 00:43:00,63.4,61.7,29.64,SSE,154,16.0,28.0,94,0.04,,-RA,0.04,VWS V14.01,2013-05-30 05:43:00,
2013-05-30 00:45:00,64.8,60.8,29.65,SSE,150,16.0,24.0,87,0.00,,,0.03,VWS V15.00,2013-05-30 05:45:00,
2013-05-30 00:48:00,63.5,61.8,29.66,SSE,158,16.0,22.0,94,0.07,,-RA,0.07,VWS V14.01,2013-05-30 05:48:00,
2013-05-30 00:53:00,63.4,61.7,29.66,SE,142,19.0,24.0,94,0.11,,-RA,0.11,VWS V14.01,2013-05-30 05:53:00,
2013-05-30 00:58:00,63.2,61.5,29.66,SE,127,15.0,24.0,94,0.13,,-RA,0.13,VWS V14.01,2013-05-30 05:58:00,
2013-05-30 01:00:00,64.2,61.2,29.65,SE,132,24.0,28.0,90,0.00,,,0.03,VWS V15.00,2013-05-30 06:00:00,
2013-05-30 01:03:00,63.2,61.8,29.64,SE,146,20.0,25.0,95,0.15,,OVC090,0.15,VWS V14.01,2013-05-30 06:03:00,
2013-05-30 01:08:00,63.2,61.8,29.64,SSE,151,17.0,25.0,95,0.20,,OVC090,0.20,VWS V14.01,2013-05-30 06:08:00,
2013-05-30 01:13:00,63.2,61.8,29.64,SSE,149,14.0,25.0,95,0.24,,OVC090,0.24,VWS V14.01,2013-05-30 06:13:00,
2013-05-30 01:15:00,63.7,61.3,29.64,SE,144,24.0,25.0,92,0.03,,,0.03,VWS V15.00,2013-05-30 06:15:00,
2013-05-30 01:18:00,63.2,62.0,29.66,SSE,151,18.0,24.0,96,0.25,,OVC090,0.29,VWS V14.01,2013-05-30 06:18:00,
2013-05-30 01:23:00,63.2,62.0,29.66,SSE,159,13.0,24.0,96,0.27,,OVC090,0.31,VWS V14.01,2013-05-30 06:23:00,
2013-05-30 01:28:00,63.1,61.9,29.66,ESE,121,12.0,24.0,96,0.30,,OVC090,0.33,VWS V14.01,2013-05-30 06:28:00,
2013-05-30 01:30:00,63.4,61.7,29.64,SSE,163,16.0,28.0,94,0.04,,,0.04,VWS V15.00,2013-05-30 06:30:00,
2013-05-30 01:33:00,63.1,61.9,29.64,ESE,123,14.0,17.0,96,0.33,,OVC090,0.37,VWS V14.01,2013-05-30 06:33:00,
2013-05-30 01:38:00,63.1,61.9,29.64,SE,139,15.0,23.0,96,0.33,,OVC090,0.37,VWS V14.01,2013-05-30 06:38:00,
2013-05-30 01:43:00,63.1,61.9,29.64,ESE,104,9.0,23.0,96,0.34,,-RA,0.38,VWS V14.01,2013-05-30 06:43:00,
2013-05-30 01:45:00,63.5,61.8,29.66,South,174,21.0,28.0,94,0.04,,,0.04,VWS V15.00,2013-05-30 06:45:00,
2013-05-30 01:48:00,63.1,61.9,29.63,SE,142,4.0,13.0,96,0.34,,-RA,0.38,VWS V14.01,2013-05-30 06:48:00,
2013-05-30 01:54:00,63.1,61.9,29.63,ESE,106,12.0,17.0,96,0.34,,-RA,0.38,VWS V14.01,2013-05-30 06:54:00,
2013-05-30 01:59:00,63.2,62.0,29.63,East,99,7.0,17.0,96,0.34,,-RA,0.38,VWS V14.01,2013-05-30 06:59:00,
2013-05-30 02:00:00,63.2,61.8,29.64,SE,142,19.0,24.0,95,0.13,,,0.13,VWS V15.00,2013-05-30 07:00:00,
2013-05-30 02:04:00,63.1,61.9,29.63,SE,135,2.0,12.0,96,0.25,,OVC048,0.38,VWS V14.01,2013-05-30 07:04:00,
2013-05-30 02:09:00,63.1,61.9,29.63,SE,132,11.0,14.0,96,0.25,,OVC048,0.38,VWS V14.01,2013-05-30 07:09:00,
2013-05-30 02:14:00,63.1,61.9,29.63,ESE,120,3.0,14.0,96,0.25,,OVC048,0.38,VWS V14.01,2013-05-30 07:14:00,
2013-05-30 02:15:00,63.2,61.8,29.66,SE,144,18.0,25.0,95,0.25,,,0.25,VWS V15.00,2013-05-30 07:15:00,
2013-05-30 02:19:00,63.1,61.9,29.62,ESE,116,11.0,12.0,96,0.13,,OVC048,0.38,VWS V14.01,2013-05-30 07:19:00,
2013-05-30 02:24:00,63.1,61.9,29.62,SE,132,5.0,14.0,96,0.13,,OVC048,0.38,VWS V14.01,2013-05-30 07:24:00,
2013-05-30 02:29:00,63.1,61.0,29.62,ESE,106,9.0,14.0,93,0.13,,OVC048,0.38,VWS V14.01,2013-05-30 07:29:00,
2013-05-30 02:30:00,63.1,61.9,29.64,SE,130,5.0,24.0,96,0.34,,,0.37,VWS V15.00,2013-05-30 07:30:00,
2013-05-30 02:34:00,63.1,61.9,29.62,ESE,104,4.0,11.0,96,0.01,,OVC048,0.38,VWS V14.01,2013-05-30 07:34:00,
2013-05-30 02:39:00,63.1,61.9,29.62,SE,136,10.0,12.0,96,0.01,,OVC048,0.38,VWS V14.01,2013-05-30 07:39:00,
2013-05-30 02:44:00,63.1,61.9,29.62,SE,138,9.0,12.0,96,0.01,,-RA,0.38,VWS V14.01,2013-05-30 07:44:00,
2013-05-30 02:45:00,63.1,61.9,29.63,SE,135,10.0,23.0,96,0.34,,,0.38,VWS V15.00,2013-05-30 07:45:00,
2013-05-30 02:49:00,63.1,61.9,29.62,SE,135,10.0,12.0,96,0.00,,-RA,0.38,VWS V14.01,2013-05-30 07:49:00,
2013-05-30 02:54:00,63.2,62.0,29.62,SE,145,9.0,12.0,96,0.00,,-RA,0.38,VWS V14.01,2013-05-30 07:54:00,
2013-05-30 02:59:00,63.2,62.0,29.62,SE,142,8.0,13.0,96,0.00,,-RA,0.38,VWS V14.01,2013-05-30 07:59:00,
2013-05-30 03:00:00,63.1,61.9,29.63,SE,142,12.0,17.0,96,0.34,,,0.38,VWS V15.00,2013-05-30 08:00:00,
2013-05-30 03:04:00,63.2,62.0,29.62,SE,144,10.0,12.0,96,0.00,,OVC023,0.38,VWS V14.01,2013-05-30 08:04:00,
2013-05-30 03:09:00,63.2,62.0,29.62,SE,146,10.0,14.0,96,0.00,,OVC023,0.38,VWS V14.01,2013-05-30 08:09:00,
2013-05-30 03:14:00,63.2,62.0,29.62,SE,139,8.0,14.0,96,0.00,,OVC023,0.38,VWS V14.01,2013-05-30 08:14:00,
2013-05-30 03:15:00,63.1,61.9,29.62,SE,129,10.0,14.0,96,0.25,,,0.38,VWS V15.00,2013-05-30 08:15:00,
2013-05-30 03:19:00,63.2,62.0,29.62,SSE,151,11.0,11.0,96,0.00,,OVC023,0.38,VWS V14.01,2013-05-30 08:19:00,
2013-05-30 03:24:00,63.2,62.0,29.62,SSE,164,13.0,14.0,96,0.00,,OVC023,0.38,VWS V14.01,2013-05-30 08:24:00,
2013-05-30 03:29:00,63.4,62.2,29.62,SE,146,10.0,14.0,96,0.00,,OVC023,0.38,VWS V14.01,2013-05-30 08:29:00,
2013-05-30 03:30:00,63.1,61.9,29.62,ESE,115,4.0,14.0,96,0.13,,,0.38,VWS V15.00,2013-05-30 08:30:00,
2013-05-30 03:34:00,63.2,62.0,29.61,SSE,148,6.0,13.0,96,0.00,,OVC023,0.38,VWS V14.01,2013-05-30 08:34:00,
2013-05-30 03:39:00,63.4,62.2,29.61,SE,144,6.0,15.0,96,0.00,,OVC023,0.38,VWS V14.01,2013-05-30 08:39:00,
2013-05-30 03:44:00,63.4,62.2,29.61,ESE,123,5.0,15.0,96,0.00,,OVC013,0.38,VWS V14.01,2013-05-30 08:44:00,
2013-05-30 03:45:00,63.1,61.9,29.62,SE,142,9.0,12.0,96,0.01,,,0.38,VWS V15.00,2013-05-30 08:45:00,
2013-05-30 03:49:00,63.4,62.2,29.60,SSE,163,9.0,13.0,96,0.00,,OVC013,0.38,VWS V14.01,2013-05-30 08:49:00,
2013-05-30 03:54:00,63.4,62.2,29.60,SE,130,12.0,14.0,96,0.00,,OVC013,0.38,VWS V14.01,2013-05-30 08:54:00,
2013-05-30 04:00:00,63.4,62.0,29.60,SSE,154,9.0,16.0,95,0.00,,OVC013,0.38,VWS V14.01,2013-05-30 09:00:00,
2013-05-30 04:05:00,63.5,62.3,29.60,SE,138,9.0,18.0,96,0.00,,OVC013,0.38,VWS V14.01,2013-05-30 09:05:00,
2013-05-30 04:10:00,63.5,62.0,29.60,SSE,150,6.0,18.0,95,0.00,,OVC013,0.38,VWS V14.01,2013-05-30 09:10:00,
2013-05-30 04:15:00,63.5,62.0,29.60,SSE,165,11.0,18.0,95,0.00,,OVC013,0.38,VWS V14.01,2013-05-30 09:15:00,
2013-05-30 04:20:00,63.7,62.2,29.59,SE,139,14.0,17.0,95,0.00,,OVC013,0.38,VWS V14.01,2013-05-30 09:20:00,
2013-05-30 04:25:00,63.7,62.5,29.59,SSE,151,16.0,19.0,96,0.00,,OVC013,0.38,VWS V14.01,2013-05-30 09:25:00,
2013-05-30 04:30:00,63.9,62.7,29.59,SE,133,12.0,19.0,96,0.00,,OVC013,0.38,VWS V14.01,2013-05-30 09:30:00,
2013-05-30 04:35:00,63.9,62.4,29.58,SE,146,10.0,19.0,95,0.00,,OVC013,0.38,VWS V14.01,2013-05-30 09:35:00,
2013-05-30 04:40:00,63.9,62.4,29.58,SE,146,21.0,21.0,95,0.00,,BKN014,0.38,VWS V14.01,2013-05-30 09:40:00,
2013-05-30 04:45:00,64.2,62.7,29.58,SSE,158,13.0,23.0,95,0.00,,BKN014,0.38,VWS V14.01,2013-05-30 09:45:00,
2013-05-30 04:50:00,64.2,62.4,29.58,ESE,116,11.0,22.0,94,0.00,,BKN014,0.38,VWS V14.01,2013-05-30 09:50:00,
2013-05-30 04:55:00,64.3,62.5,29.58,SE,142,13.0,22.0,94,0.00,,BKN014,0.38,VWS V14.01,2013-05-30 09:55:00,
2013-05-30 05:00:00,64.3,62.5,29.57,SE,141,7.0,22.0,94,0.00,,BKN014,0.38,VWS V14.01,2013-05-30 10:00:00,
2013-05-30 05:05:00,64.3,62.5,29.57,SE,124,16.0,19.0,94,0.00,,SCT120,0.38,VWS V14.01,2013-05-30 10:05:00,
2013-05-30 05:10:00,64.2,62.4,29.57,ESE,111,11.0,20.0,94,0.00,,SCT120,0.38,VWS V14.01,2013-05-30 10:10:00,
2013-05-30 05:15:00,64.2,62.4,29.56,SE,141,15.0,23.0,94,0.00,,SCT120,0.38,VWS V14.01,2013-05-30 10:15:00,
2013-05-30 05:20:00,64.2,62.4,29.56,ESE,118,13.0,18.0,94,0.00,,SCT120,0.38,VWS V14.01,2013-05-30 10:20:00,
2013-05-30 05:25:00,64.2,62.4,29.56,ESE,109,14.0,20.0,94,0.00,,SCT120,0.38,VWS V14.01,2013-05-30 10:25:00,
2013-05-30 05:30:00,64.3,62.5,29.56,SE,132,13.0,25.0,94,0.00,,SCT120,0.38,VWS V14.01,2013-05-30 10:30:00,
2013-05-30 05:35:00,64.3,62.2,29.56,SE,137,13.0,20.0,93,0.00,,SCT120,0.38,VWS V14.01,2013-05-30 10:35:00,
2013-05-30 05:40:00,64.3,62.2,29.56,ESE,121,9.0,26.0,93,0.00,,SCT110,0.38,VWS V14.01,2013-05-30 10:40:00,
2013-05-30 05:45:00,64.3,62.2,29.56,ESE,120,13.0,26.0,93,0.00,,SCT110,0.38,VWS V14.01,2013-05-30 10:45:00,
2013-05-30 05:50:00,64.3,62.2,29.56,SE,130,13.0,24.0,93,0.00,,SCT110,0.38,VWS V14.01,2013-05-30 10:50:00,
2013-05-30 05:55:00,64.3,62.2,29.56,SSE,147,11.0,24.0,93,0.00,,SCT110,0.38,VWS V14.01,2013-05-30 10:55:00,
2013-05-30 06:00:00,64.5,62.4,29.57,SE,127,16.0,24.0,93,0.00,,SCT110,0.38,VWS V14.01,2013-05-30 11:00:00,
2013-05-30 06:05:00,64.7,62.6,29.57,SE,146,17.0,19.0,93,0.00,,CLR,0.38,VWS V14.01,2013-05-30 11:05:00,
2013-05-30 06:10:00,64.8,62.7,29.57,SSE,149,14.0,21.0,93,0.00,,CLR,0.38,VWS V14.01,2013-05-30 11:10:00,
2013-05-30 06:15:00,65.0,62.6,29.57,SE,137,11.0,21.0,92,0.00,,CLR,0.38,VWS V14.01,2013-05-30 11:15:00,
2013-05-30 06:20:00,65.3,62.9,29.57,SSE,150,11.0,24.0,92,0.00,,CLR,0.38,VWS V14.01,2013-05-30 11:20:00,
2013-05-30 06:25:00,65.5,62.8,29.57,SE,125,20.0,24.0,91,0.00,,CLR,0.38,VWS V14.01,2013-05-30 11:25:00,
2013-05-30 06:30:00,65.5,62.8,29.57,SSE,148,11.0,24.0,91,0.00,,CLR,0.38,VWS V14.01,2013-05-30 11:30:00,
2013-05-30 06:35:00,65.5,62.8,29.57,SE,139,11.0,22.0,91,0.00,,CLR,0.38,VWS V14.01,2013-05-30 11:35:00,
2013-05-30 06:40:00,65.5,62.8,29.57,SE,134,5.0,22.0,91,0.00,,BKN018,0.38,VWS V14.01,2013-05-30 11:40:00,
2013-05-30 06:45:00,65.6,62.6,29.57,SE,132,12.0,23.0,90,0.00,,BKN018,0.38,VWS V14.01,2013-05-30 11:45:00,
2013-05-30 06:50:00,65.8,62.8,29.57,SE,143,20.0,23.0,90,0.00,,BKN018,0.38,VWS V14.01,2013-05-30 11:50:00,
2013-05-30 06:55:00,66.0,63.0,29.57,SSE,154,15.0,23.0,90,0.00,,BKN018,0.38,VWS V14.01,2013-05-30 11:55:00,
2013-05-30 07:00:00,64.5,62.4,29.57,SE,142,12.0,24.0,93,0.00,,,0.38,VWS V15.00,2013-05-30 12:00:00,
2013-05-30 07:01:00,66.1,63.1,29.56,SE,125,9.0,23.0,90,0.00,,BKN018,0.38,VWS V14.01,2013-05-30 12:01:00,
2013-05-30 07:06:00,66.3,63.3,29.56,SE,141,13.0,22.0,90,0.00,,BKN018,0.38,VWS V14.01,2013-05-30 12:06:00,
2013-05-30 07:11:00,66.4,63.1,29.56,SE,137,19.0,22.0,89,0.00,,OVC019,0.38,VWS V14.01,2013-05-30 12:11:00,
2013-05-30 07:15:00,65.0,62.6,29.57,SE,137,5.0,21.0,92,0.00,,,0.38,VWS V15.00,2013-05-30 12:15:00,
2013-05-30 07:16:00,66.6,63.3,29.56,SE,141,17.0,22.0,89,0.00,,OVC019,0.38,VWS V14.01,2013-05-30 12:16:00,
2013-05-30 07:21:00,66.9,63.6,29.56,SSE,156,15.0,23.0,89,0.00,,OVC019,0.38,VWS V14.01,2013-05-30 12:21:00,
2013-05-30 07:26:00,67.3,63.6,29.56,SE,144,11.0,24.0,88,0.00,,OVC019,0.38,VWS V14.01,2013-05-30 12:26:00,
2013-05-30 07:30:00,65.5,62.8,29.57,SSE,148,12.0,24.0,91,0.00,,,0.38,VWS V15.00,2013-05-30 12:30:00,
2013-05-30 07:31:00,67.4,63.7,29.55,SE,146,16.0,24.0,88,0.00,,OVC019,0.38,VWS V14.01,2013-05-30 12:31:00,
2013-05-30 07:36:00,67.4,63.4,29.55,SE,144,13.0,33.0,87,0.00,,OVC019,0.38,VWS V14.01,2013-05-30 12:36:00,
2013-05-30 07:41:00,67.4,63.4,29.55,SE,131,13.0,33.0,87,0.00,,OVC019,0.38,VWS V14.01,2013-05-30 12:41:00,
2013-05-30 07:45:00,65.6,62.6,29.57,SE,137,15.0,23.0,90,0.00,,,0.38,VWS V15.00,2013-05-30 12:45:00,
2013-05-30 07:46:00,67.6,63.6,29.55,SE,140,21.0,33.0,87,0.00,,OVC019,0.38,VWS V14.01,2013-05-30 12:46:00,
2013-05-30 07:51:00,67.8,63.5,29.55,SE,146,19.0,28.0,86,0.00,,OVC019,0.38,VWS V14.01,2013-05-30 12:51:00,
2013-05-30 07:56:00,67.9,63.6,29.55,SE,137,17.0,28.0,86,0.00,,OVC019,0.38,VWS V14.01,2013-05-30 12:56:00,
2013-05-30 08:00:00,66.1,63.1,29.56,SE,125,5.0,23.0,90,0.00,,,0.38,VWS V15.00,2013-05-30 13:00:00,
2013-05-30 08:01:00,68.1,63.8,29.55,SE,135,20.0,28.0,86,0.00,,SCT075,0.38,VWS V14.01,2013-05-30 13:01:00,
2013-05-30 08:06:00,68.4,64.1,29.55,SSE,148,15.0,25.0,86,0.00,,SCT075,0.38,VWS V14.01,2013-05-30 13:06:00,
2013-05-30 08:11:00,68.6,63.9,29.55,SSE,156,27.0,27.0,85,0.00,,SCT075,0.38,VWS V14.01,2013-05-30 13:11:00,
2013-05-30 08:15:00,66.6,63.3,29.56,SE,142,17.0,22.0,89,0.00,,,0.38,VWS V15.00,2013-05-30 13:15:00,
2013-05-30 08:16:00,68.6,63.6,29.55,SSE,151,19.0,23.0,84,0.00,,SCT075,0.38,VWS V14.01,2013-05-30 13:16:00,
2013-05-30 08:21:00,68.8,64.1,29.55,SSE,151,11.0,26.0,85,0.00,,SCT075,0.38,VWS V14.01,2013-05-30 13:21:00,
2013-05-30 08:26:00,68.9,63.9,29.55,SE,125,16.0,28.0,84,0.00,,SCT075,0.38,VWS V14.01,2013-05-30 13:26:00,
2013-05-30 08:30:00,67.4,63.7,29.55,SSE,151,19.0,24.0,88,0.00,,,0.38,VWS V15.00,2013-05-30 13:30:00,
2013-05-30 08:31:00,69.1,64.1,29.55,SSE,159,24.0,24.0,84,0.00,,SCT075,0.38,VWS V14.01,2013-05-30 13:31:00,
2013-05-30 08:36:00,69.4,64.0,29.55,SSE,158,20.0,31.0,83,0.00,,SCT120,0.38,VWS V14.01,2013-05-30 13:36:00,
2013-05-30 08:41:00,69.4,63.7,29.55,SSE,150,21.0,31.0,82,0.00,,SCT120,0.38,VWS V14.01,2013-05-30 13:41:00,
2013-05-30 08:45:00,67.6,63.6,29.55,SE,140,21.0,33.0,87,0.00,,,0.38,VWS V15.00,2013-05-30 13:45:00,
2013-05-30 08:46:00,69.6,63.9,29.56,SSE,155,22.0,22.0,82,0.00,,SCT120,0.38,VWS V14.01,2013-05-30 13:46:00,
2013-05-30 08:51:00,70.1,64.4,29.56,SSE,158,19.0,27.0,82,0.00,,SCT120,0.38,VWS V14.01,2013-05-30 13:51:00,
2013-05-30 08:56:00,70.6,64.5,29.56,SSE,158,24.0,29.0,81,0.00,,SCT120,0.38,VWS V14.01,2013-05-30 13:56:00,
2013-05-30 09:00:00,68.1,63.8,29.55,SE,135,20.0,28.0,86,0.00,,,0.38,VWS V15.00,2013-05-30 14:00:00,
2013-05-30 09:01:00,70.8,64.3,29.56,South,172,19.0,25.0,80,0.00,,BKN120,0.38,VWS V14.01,2013-05-30 14:01:00,
2013-05-30 09:06:00,70.4,63.9,29.56,SSE,165,22.0,28.0,80,0.00,,BKN120,0.38,VWS V14.01,2013-05-30 14:06:00,
2013-05-30 09:11:00,70.3,63.8,29.56,SE,139,27.0,31.0,80,0.00,,BKN120,0.38,VWS V14.01,2013-05-30 14:11:00,
2013-05-30 09:15:00,68.6,63.6,29.55,SSE,147,23.0,27.0,84,0.00,,,0.38,VWS V15.00,2013-05-30 14:15:00,
2013-05-30 09:16:00,70.1,63.7,29.58,SSE,161,20.0,30.0,80,0.00,,BKN120,0.38,VWS V14.01,2013-05-30 14:16:00,
2013-05-30 09:21:00,70.1,63.7,29.58,SSE,149,22.0,32.0,80,0.00,,BKN120,0.38,VWS V14.01,2013-05-30 14:21:00,
2013-05-30 09:26:00,70.4,63.9,29.58,South,172,16.0,32.0,80,0.00,,BKN120,0.38,VWS V14.01,2013-05-30 14:26:00,
2013-05-30 09:30:00,69.1,64.1,29.55,SSE,155,21.0,28.0,84,0.00,,,0.38,VWS V15.00,2013-05-30 14:30:00,
2013-05-30 09:32:00,70.9,64.4,29.58,SE,144,14.0,18.0,80,0.00,,OVC110,0.38,VWS V14.01,2013-05-30 14:32:00,
2013-05-30 09:37:00,71.8,64.9,29.58,SSE,162,27.0,29.0,79,0.00,,OVC110,0.38,VWS V14.01,2013-05-30 14:37:00,
2013-05-30 09:42:00,72.7,65.8,29.58,SSE,158,24.0,29.0,79,0.00,,OVC110,0.38,VWS V14.01,2013-05-30 14:42:00,
2013-05-30 09:45:00,69.6,63.9,29.56,SSE,150,18.0,31.0,82,0.00,,,0.38,VWS V15.00,2013-05-30 14:45:00,
2013-05-30 09:47:00,73.0,65.0,29.58,South,172,22.0,25.0,76,0.00,,OVC110,0.38,VWS V14.01,2013-05-30 14:47:00,
2013-05-30 09:52:00,72.8,64.4,29.58,SSE,163,25.0,32.0,75,0.00,,OVC110,0.38,VWS V14.01,2013-05-30 14:52:00,
2013-05-30 09:57:00,73.0,65.4,29.58,SSW,197,21.0,32.0,77,0.00,,OVC110,0.38,VWS V14.01,2013-05-30 14:57:00,
2013-05-30 10:00:00,70.8,64.3,29.56,SSE,167,25.0,30.0,80,0.00,,,0.38,VWS V15.00,2013-05-30 15:00:00,
2013-05-30 10:02:00,72.8,64.4,29.58,SSE,164,15.0,24.0,75,0.00,,OVC110,0.38,VWS V14.01,2013-05-30 15:02:00,
2013-05-30 10:07:00,72.7,64.3,29.58,SE,146,24.0,30.0,75,0.00,,OVC110,0.38,VWS V14.01,2013-05-30 15:07:00,
2013-05-30 10:12:00,72.1,64.5,29.58,SE,144,24.0,30.0,77,0.00,,OVC110,0.38,VWS V14.01,2013-05-30 15:12:00,
2013-05-30 10:15:00,70.1,63.7,29.58,SSE,150,20.0,31.0,80,0.00,,,0.38,VWS V15.00,2013-05-30 15:15:00,
2013-05-30 10:17:00,72.3,64.3,29.57,SSE,156,23.0,25.0,76,0.00,,OVC110,0.38,VWS V14.01,2013-05-30 15:17:00,
2013-05-30 10:22:00,72.5,64.1,29.57,SSE,152,18.0,27.0,75,0.00,,OVC110,0.38,VWS V14.01,2013-05-30 15:22:00,
2013-05-30 10:27:00,72.3,63.6,29.57,South,170,16.0,30.0,74,0.00,,OVC110,0.38,VWS V14.01,2013-05-30 15:27:00,
2013-05-30 10:30:00,70.8,64.3,29.58,SE,142,13.0,32.0,80,0.00,,,0.38,VWS V15.00,2013-05-30 15:30:00,
2013-05-30 10:32:00,72.5,64.1,29.57,SSE,150,29.0,29.0,75,0.00,,OVC110,0.38,VWS V14.01,2013-05-30 15:32:00,
2013-05-30 10:37:00,72.5,63.0,29.57,South,182,17.0,30.0,72,0.00,,OVC110,0.38,VWS V14.01,2013-05-30 15:37:00,
2013-05-30 10:42:00,72.5,63.0,29.57,South,178,24.0,30.0,72,0.00,,BKN046,0.38,VWS V14.01,2013-05-30 15:42:00,
2013-05-30 10:45:00,73.0,65.0,29.58,SSE,157,25.0,30.0,76,0.00,,,0.38,VWS V15.00,2013-05-30 15:45:00,
2013-05-30 10:47:00,72.1,62.2,29.57,South,174,17.0,25.0,71,0.00,,BKN046,0.38,VWS V14.01,2013-05-30 15:47:00,
2013-05-30 10:52:00,72.0,62.5,29.57,SSE,154,14.0,27.0,72,0.00,,BKN046,0.38,VWS V14.01,2013-05-30 15:52:00,
2013-05-30 10:57:00,72.0,62.5,29.57,SSE,158,18.0,27.0,72,0.00,,BKN046,0.38,VWS V14.01,2013-05-30 15:57:00,
2013-05-30 11:00:00,72.8,64.8,29.58,South,174,23.0,32.0,76,0.00,,,0.38,VWS V15.00,2013-05-30 16:00:00,
2013-05-30 11:02:00,72.0,62.5,29.57,SE,146,15.0,21.0,72,0.00,,OVC048,0.38,VWS V14.01,2013-05-30 16:02:00,
2013-05-30 11:07:00,72.1,63.4,29.57,SSE,154,14.0,21.0,74,0.00,,OVC048,0.38,VWS V14.01,2013-05-30 16:07:00,
2013-05-30 11:12:00,72.1,63.4,29.57,South,175,21.0,25.0,74,0.00,,OVC048,0.38,VWS V14.01,2013-05-30 16:12:00,
2013-05-30 11:15:00,72.3,64.3,29.57,SSE,157,21.0,30.0,76,0.00,,,0.38,VWS V15.00,2013-05-30 16:15:00,
2013-05-30 11:17:00,72.0,63.7,29.57,SSE,166,15.0,23.0,75,0.00,,OVC048,0.38,VWS V14.01,2013-05-30 16:17:00,
2013-05-30 11:22:00,72.0,63.3,29.57,SSE,168,15.0,25.0,74,0.00,,OVC048,0.38,VWS V14.01,2013-05-30 16:22:00,
2013-05-30 11:27:00,72.1,63.4,29.57,SE,139,17.0,25.0,74,0.00,,OVC048,0.38,VWS V14.01,2013-05-30 16:27:00,
2013-05-30 11:30:00,72.5,64.1,29.57,SSE,155,20.0,30.0,75,0.00,,,0.38,VWS V15.00,2013-05-30 16:30:00,
2013-05-30 11:32:00,72.5,63.4,29.57,SSE,164,13.0,22.0,73,0.00,,OVC055,0.38,VWS V14.01,2013-05-30 16:32:00,
2013-05-30 11:39:00,73.3,63.7,29.57,SE,146,18.0,25.0,72,0.00,,OVC055,0.38,VWS V14.01,2013-05-30 16:39:00,
2013-05-30 11:44:00,73.3,63.7,29.57,SSE,165,16.0,25.0,72,0.00,,OVC055,0.38,VWS V14.01,2013-05-30 16:44:00,
2013-05-30 11:45:00,72.3,62.8,29.57,SSE,164,25.0,30.0,72,0.00,,,0.38,VWS V15.00,2013-05-30 16:45:00,
2013-05-30 11:49:00,73.0,63.8,29.58,SE,137,18.0,30.0,73,0.00,,OVC055,0.38,VWS V14.01,2013-05-30 16:49:00,
2013-05-30 11:54:00,72.8,64.0,29.58,South,170,17.0,30.0,74,0.00,,OVC055,0.38,VWS V14.01,2013-05-30 16:54:00,
2013-05-30 11:59:00,72.5,63.0,29.58,South,172,15.0,32.0,72,0.00,,OVC055,0.38,VWS V14.01,2013-05-30 16:59:00,
2013-05-30 12:00:00,72.0,62.5,29.57,SSE,160,21.0,27.0,72,0.00,,,0.38,VWS V15.00,2013-05-30 17:00:00,
2013-05-30 12:04:00,72.1,62.6,29.58,South,175,27.0,30.0,72,0.00,,OVC050,0.38,VWS V14.01,2013-05-30 17:04:00,
2013-05-30 12:09:00,71.8,62.3,29.58,South,170,23.0,30.0,72,0.00,,OVC050,0.38,VWS V14.01,2013-05-30 17:09:00,
2013-05-30 12:14:00,72.0,62.9,29.58,South,169,16.0,30.0,73,0.00,,OVC050,0.38,VWS V14.01,2013-05-30 17:14:00,
2013-05-30 12:15:00,72.0,63.3,29.57,SSE,152,15.0,25.0,74,0.00,,,0.38,VWS V15.00,2013-05-30 17:15:00,
2013-05-30 12:19:00,72.7,63.2,29.58,South,186,17.0,26.0,72,0.00,,OVC050,0.38,VWS V14.01,2013-05-30 17:19:00,
2013-05-30 12:24:00,72.3,60.7,29.58,South,186,27.0,32.0,67,0.00,,OVC050,0.38,VWS V14.01,2013-05-30 17:24:00,
2013-05-30 12:29:00,71.1,62.4,29.58,SSE,166,19.0,32.0,74,0.00,,OVC050,0.38,VWS V14.01,2013-05-30 17:29:00,
2013-05-30 12:30:00,72.3,63.2,29.57,SSE,153,14.0,25.0,73,0.00,,,0.38,VWS V15.00,2013-05-30 17:30:00,
2013-05-30 12:34:00,70.6,61.9,29.59,SSE,161,26.0,28.0,74,0.00,,-RA,0.38,VWS V14.01,2013-05-30 17:34:00,
2013-05-30 12:39:00,71.1,62.0,29.59,South,171,20.0,32.0,73,0.00,,-RA,0.38,VWS V14.01,2013-05-30 17:39:00,
2013-05-30 12:44:00,71.8,63.1,29.59,South,184,23.0,32.0,74,0.00,,-RA,0.38,VWS V14.01,2013-05-30 17:44:00,
2013-05-30 12:45:00,73.2,63.6,29.58,SSE,153,20.0,25.0,72,0.00,,,0.38,VWS V15.00,2013-05-30 17:45:00,
2013-05-30 12:49:00,71.8,62.3,29.58,SSE,161,16.0,27.0,72,0.00,,-RA,0.38,VWS V14.01,2013-05-30 17:49:00,
2013-05-30 12:54:00,71.6,62.5,29.58,SE,141,20.0,27.0,73,0.00,,-RA,0.38,VWS V14.01,2013-05-30 17:54:00,
2013-05-30 12:59:00,71.6,62.5,29.58,South,180,21.0,27.0,73,0.00,,-RA,0.38,VWS V14.01,2013-05-30 17:59:00,
2013-05-30 13:00:00,72.3,63.2,29.58,SSE,158,28.0,32.0,73,0.00,,,0.38,VWS V15.00,2013-05-30 18:00:00,
2013-05-30 13:04:00,71.5,62.0,29.58,South,186,21.0,27.0,72,0.00,,OVC041,0.38,VWS V14.01,2013-05-30 18:04:00,
2013-05-30 13:09:00,71.1,62.0,29.58,SSE,159,19.0,27.0,73,0.00,,OVC041,0.38,VWS V14.01,2013-05-30 18:09:00,
2013-05-30 13:14:00,70.8,62.1,29.58,SSE,165,19.0,27.0,74,0.00,,OVC041,0.38,VWS V14.01,2013-05-30 18:14:00,
2013-05-30 13:15:00,72.3,62.8,29.58,SSE,163,20.0,30.0,72,0.00,,,0.38,VWS V15.00,2013-05-30 18:15:00,
2013-05-30 13:19:00,70.8,62.5,29.58,South,175,21.0,21.0,75,0.00,,OVC041,0.38,VWS V14.01,2013-05-30 18:19:00,
2013-05-30 13:24:00,70.6,61.9,29.58,SSE,164,18.0,21.0,74,0.00,,OVC041,0.38,VWS V14.01,2013-05-30 18:24:00,
2013-05-30 13:29:00,70.6,61.9,29.58,South,174,14.0,21.0,74,0.00,,OVC041,0.38,VWS V14.01,2013-05-30 18:29:00,
2013-05-30 13:30:00,70.8,62.1,29.59,SSE,161,28.0,32.0,74,0.00,,,0.38,VWS V15.00,2013-05-30 18:30:00,
2013-05-30 13:34:00,70.4,61.7,29.58,South,187,15.0,21.0,74,0.00,,OVC041,0.38,VWS V14.01,2013-05-30 18:34:00,
2013-05-30 13:39:00,70.4,62.1,29.58,South,169,12.0,21.0,75,0.00,,OVC041,0.38,VWS V14.01,2013-05-30 18:39:00,
2013-05-30 13:44:00,70.4,62.1,29.58,South,172,13.0,21.0,75,0.00,,OVC090,0.38,VWS V14.01,2013-05-30 18:44:00,
2013-05-30 13:45:00,72.0,62.9,29.58,South,187,19.0,32.0,73,0.00,,,0.38,VWS V15.00,2013-05-30 18:45:00,
2013-05-30 13:49:00,70.4,61.3,29.58,South,170,12.0,20.0,73,0.00,,OVC090,0.38,VWS V14.01,2013-05-30 18:49:00,
2013-05-30 13:54:00,70.4,61.7,29.58,South,179,14.0,20.0,74,0.00,,OVC090,0.38,VWS V14.01,2013-05-30 18:54:00,
2013-05-30 13:59:00,70.6,61.5,29.58,SSE,164,14.0,22.0,73,0.00,,OVC090,0.38,VWS V14.01,2013-05-30 18:59:00,
2013-05-30 14:00:00,71.6,62.9,29.58,South,170,14.0,27.0,74,0.00,,,0.38,VWS V15.00,2013-05-30 19:00:00,
2013-05-30 14:04:00,71.3,62.2,29.57,South,187,11.0,15.0,73,0.00,,OVC090,0.38,VWS V14.01,2013-05-30 19:04:00,
2013-05-30 14:10:00,71.6,62.1,29.57,SSE,161,18.0,21.0,72,0.00,,OVC090,0.38,VWS V14.01,2013-05-30 19:10:00,
2013-05-30 14:15:00,71.8,62.3,29.57,South,186,15.0,21.0,72,0.00,,OVC090,0.38,VWS V14.01,2013-05-30 19:15:00,
2013-05-30 14:20:00,72.5,62.6,29.57,South,172,13.0,18.0,71,0.00,,OVC090,0.38,VWS V14.01,2013-05-30 19:20:00,
2013-05-30 14:25:00,74.0,63.2,29.57,SSE,164,21.0,21.0,69,0.00,,OVC090,0.38,VWS V14.01,2013-05-30 19:25:00,
2013-05-30 14:30:00,74.0,62.8,29.57,SSE,163,14.0,22.0,68,0.00,,OVC090,0.38,VWS V14.01,2013-05-30 19:30:00,
2013-05-30 14:35:00,74.6,63.3,29.56,South,169,20.0,21.0,68,0.00,,OVC090,0.38,VWS V14.01,2013-05-30 19:35:00,
2013-05-30 14:40:00,75.1,63.8,29.56,South,170,21.0,21.0,68,0.00,,OVC090,0.38,VWS V14.01,2013-05-30 19:40:00,
2013-05-30 14:45:00,74.6,62.9,29.56,South,170,21.0,26.0,67,0.00,,OVC090,0.38,VWS V14.01,2013-05-30 19:45:00,
2013-05-30 14:50:00,74.2,61.7,29.55,SSE,168,23.0,23.0,65,0.00,,OVC090,0.38,VWS V14.01,2013-05-30 19:50:00,
2013-05-30 14:55:00,74.2,62.1,29.55,SSE,166,15.0,24.0,66,0.00,,OVC090,0.38,VWS V14.01,2013-05-30 19:55:00,
2013-05-30 15:00:00,74.6,62.5,29.55,SSE,158,14.0,24.0,66,0.00,,OVC090,0.38,VWS V14.01,2013-05-30 20:00:00,
2013-05-30 15:05:00,74.9,62.3,29.55,SSE,151,20.0,21.0,65,0.00,,BKN120,0.38,VWS V14.01,2013-05-30 20:05:00,
2013-05-30 15:10:00,76.5,63.0,29.55,SSE,158,21.0,21.0,63,0.00,,BKN120,0.38,VWS V14.01,2013-05-30 20:10:00,
2013-05-30 15:15:00,76.3,62.3,29.55,SSW,212,16.0,25.0,62,0.00,,BKN120,0.38,VWS V14.01,2013-05-30 20:15:00,
2013-05-30 15:20:00,76.5,61.6,29.55,South,191,16.0,24.0,60,0.00,,BKN120,0.38,VWS V14.01,2013-05-30 20:20:00,
2013-05-30 15:25:00,76.8,62.3,29.55,SSW,213,23.0,24.0,61,0.00,,BKN120,0.38,VWS V14.01,2013-05-30 20:25:00,
2013-05-30 15:30:00,77.4,62.9,29.54,SSE,152,19.0,26.0,61,0.00,,BKN120,0.38,VWS V14.01,2013-05-30 20:30:00,
2013-05-30 15:35:00,77.6,63.1,29.54,SSE,153,7.0,22.0,61,0.00,,SCT120,0.38,VWS V14.01,2013-05-30 20:35:00,
2013-05-30 15:40:00,77.9,63.8,29.54,South,189,16.0,22.0,62,0.01,,SCT120,0.40,VWS V14.01,2013-05-30 20:40:00,
2013-05-30 15:45:00,77.4,61.5,29.53,South,180,21.0,30.0,58,0.01,,SCT120,0.40,VWS V14.01,2013-05-30 20:45:00,
2013-05-30 15:50:00,77.0,61.6,29.53,South,182,22.0,30.0,59,0.01,,SCT120,0.40,VWS V14.01,2013-05-30 20:50:00,
2013-05-30 15:55:00,77.0,61.6,29.53,South,190,22.0,30.0,59,0.01,,SCT120,0.40,VWS V14.01,2013-05-30 20:55:00,
2013-05-30 16:00:00,77.9,62.0,29.53,South,175,17.0,30.0,58,0.01,,SCT120,0.40,VWS V14.01,2013-05-30 21:00:00,
2013-05-30 16:05:00,78.6,62.1,29.53,South,170,16.0,22.0,57,0.01,,SCT090,0.40,VWS V14.01,2013-05-30 21:05:00,
2013-05-30 16:10:00,76.8,61.4,29.53,SSE,152,13.0,23.0,59,0.01,,SCT090,0.40,VWS V14.01,2013-05-30 21:10:00,
2013-05-30 16:15:00,76.8,60.9,29.53,SE,143,18.0,24.0,58,0.01,,SCT090,0.40,VWS V14.01,2013-05-30 21:15:00,
2013-05-30 16:20:00,76.5,60.2,29.53,SSE,158,13.0,25.0,57,0.01,,SCT090,0.40,VWS V14.01,2013-05-30 21:20:00,
2013-05-30 16:25:00,75.8,60.9,29.53,SSE,166,18.0,25.0,60,0.01,,SCT090,0.40,VWS V14.01,2013-05-30 21:25:00,
2013-05-30 16:30:00,75.6,60.8,29.52,SSE,159,15.0,25.0,60,0.01,,SCT090,0.40,VWS V14.01,2013-05-30 21:30:00,
2013-05-30 16:35:00,75.8,60.9,29.52,SSE,163,13.0,21.0,60,0.01,,CLR,0.40,VWS V14.01,2013-05-30 21:35:00,
2013-05-30 16:40:00,75.4,60.6,29.52,SE,146,11.0,21.0,60,0.01,,CLR,0.40,VWS V14.01,2013-05-30 21:40:00,
2013-05-30 16:45:00,77.4,61.5,29.53,South,186,23.0,30.0,58,0.01,,,0.40,VWS V15.00,2013-05-30 21:45:00,
2013-05-30 16:46:00,75.4,60.6,29.52,SSE,165,11.0,21.0,60,0.01,,CLR,0.40,VWS V14.01,2013-05-30 21:46:00,
2013-05-30 16:51:00,75.6,60.8,29.52,South,184,12.0,19.0,60,0.00,,CLR,0.40,VWS V14.01,2013-05-30 21:51:00,
2013-05-30 16:56:00,75.4,61.0,29.52,South,169,14.0,19.0,61,0.00,,CLR,0.40,VWS V14.01,2013-05-30 21:56:00,
2013-05-30 17:00:00,77.9,62.0,29.53,South,170,12.0,30.0,58,0.01,,,0.40,VWS V15.00,2013-05-30 22:00:00,
2013-05-30 17:01:00,74.9,61.0,29.52,SSE,161,13.0,19.0,62,0.00,,CLR,0.40,VWS V14.01,2013-05-30 22:01:00,
2013-05-30 17:06:00,74.6,60.7,29.52,SSE,151,12.0,15.0,62,0.00,,CLR,0.40,VWS V14.01,2013-05-30 22:06:00,
2013-05-30 17:11:00,74.0,61.5,29.52,SE,144,11.0,23.0,65,0.00,,CLR,0.40,VWS V14.01,2013-05-30 22:11:00,
2013-05-30 17:15:00,76.8,61.9,29.53,SSE,149,15.0,24.0,60,0.01,,,0.40,VWS V15.00,2013-05-30 22:15:00,
2013-05-30 17:16:00,73.7,61.7,29.52,SSE,149,14.0,23.0,66,0.00,,CLR,0.40,VWS V14.01,2013-05-30 22:16:00,
2013-05-30 17:21:00,73.5,61.0,29.52,SSE,160,15.0,19.0,65,0.00,,CLR,0.40,VWS V14.01,2013-05-30 22:21:00,
2013-05-30 17:26:00,73.9,61.4,29.52,SSE,153,14.0,19.0,65,0.00,,CLR,0.40,VWS V14.01,2013-05-30 22:26:00,
2013-05-30 17:30:00,75.6,60.8,29.52,SSE,157,15.0,25.0,60,0.01,,,0.40,VWS V15.00,2013-05-30 22:30:00,
2013-05-30 17:31:00,74.0,61.5,29.52,SSE,158,13.0,19.0,65,0.00,,CLR,0.40,VWS V14.01,2013-05-30 22:31:00,
2013-05-30 17:36:00,74.0,61.9,29.52,SSE,153,14.0,19.0,66,0.00,,CLR,0.40,VWS V14.01,2013-05-30 22:36:00,
2013-05-30 17:41:00,74.2,62.1,29.52,SSE,155,8.0,19.0,66,0.00,,OVC110,0.40,VWS V14.01,2013-05-30 22:41:00,
2013-05-30 17:45:00,75.4,60.6,29.52,SSE,166,10.0,21.0,60,0.01,,,0.40,VWS V15.00,2013-05-30 22:45:00,
2013-05-30 17:46:00,74.2,62.5,29.51,SSE,161,10.0,19.0,67,0.00,,OVC110,0.40,VWS V14.01,2013-05-30 22:46:00,
2013-05-30 17:51:00,74.0,61.9,29.51,South,170,9.0,13.0,66,0.00,,OVC110,0.40,VWS V14.01,2013-05-30 22:51:00,
2013-05-30 17:56:00,73.9,62.3,29.51,SSE,158,13.0,13.0,67,0.00,,OVC110,0.40,VWS V14.01,2013-05-30 22:56:00,
2013-05-30 18:00:00,74.9,61.0,29.52,SSE,158,15.0,19.0,62,0.00,,,0.40,VWS V15.00,2013-05-30 23:00:00,
2013-05-30 18:01:00,74.2,62.5,29.51,SSE,156,10.0,10.0,67,0.00,,OVC110,0.40,VWS V14.01,2013-05-30 23:01:00,
2013-05-30 18:06:00,74.4,62.7,29.51,SSE,154,7.0,14.0,67,0.00,,OVC110,0.40,VWS V14.01,2013-05-30 23:06:00,
2013-05-30 18:11:00,74.7,62.2,29.51,SSE,163,15.0,19.0,65,0.00,,OVC110,0.40,VWS V14.01,2013-05-30 23:11:00,
2013-05-30 18:15:00,73.7,61.7,29.52,SSE,149,10.0,23.0,66,0.00,,,0.40,VWS V15.00,2013-05-30 23:15:00,
2013-05-30 18:16:00,74.7,61.7,29.51,SSE,151,21.0,26.0,64,0.00,,OVC110,0.40,VWS V14.01,2013-05-30 23:16:00,
2013-05-30 18:21:00,74.4,61.0,29.51,SSE,152,22.0,26.0,63,0.00,,OVC110,0.40,VWS V14.01,2013-05-30 23:21:00,
2013-05-30 18:26:00,73.9,61.4,29.51,SSE,149,23.0,28.0,65,0.00,,OVC110,0.40,VWS V14.01,2013-05-30 23:26:00,
2013-05-30 18:30:00,74.0,61.5,29.52,SSE,158,13.0,19.0,65,0.00,,,0.40,VWS V15.00,2013-05-30 23:30:00,
2013-05-30 18:31:00,72.7,61.1,29.50,SE,146,16.0,16.0,67,0.00,,OVC075,0.40,VWS V14.01,2013-05-30 23:31:00,
2013-05-30 18:37:00,72.5,61.3,29.50,SSE,162,18.0,22.0,68,0.00,,OVC075,0.40,VWS V14.01,2013-05-30 23:37:00,
2013-05-30 18:42:00,72.7,61.5,29.50,SSE,156,9.0,22.0,68,0.00,,OVC075,0.40,VWS V14.01,2013-05-30 23:42:00,
2013-05-30 18:45:00,74.2,62.5,29.51,SSE,161,10.0,19.0,67,0.00,,,0.40,VWS V15.00,2013-05-30 23:45:00,
2013-05-30 18:47:00,72.8,61.6,29.50,SSE,166,12.0,15.0,68,0.00,,OVC075,0.40,VWS V14.01,2013-05-30 23:47:00,
2013-05-30 18:52:00,72.8,62.0,29.50,SSE,157,12.0,17.0,69,0.00,,OVC075,0.40,VWS V14.01,2013-05-30 23:52:00,
2013-05-30 18:57:00,72.8,61.6,29.50,SE,139,15.0,25.0,68,0.00,,OVC075,0.40,VWS V14.01,2013-05-30 23:57:00,
2013-05-30 19:00:00,74.0,62.4,29.51,SSE,156,10.0,14.0,67,0.00,,,0.40,VWS V15.00,2013-05-31 00:00:00,
2013-05-30 19:02:00,72.8,62.0,29.50,SE,146,13.0,14.0,69,0.00,,OVC075,0.40,VWS V14.01,2013-05-31 00:02:00,
2013-05-30 19:07:00,72.8,62.0,29.50,SSE,151,14.0,19.0,69,0.00,,OVC075,0.40,VWS V14.01,2013-05-31 00:07:00,
2013-05-30 19:12:00,72.8,61.6,29.50,SSE,154,15.0,23.0,68,0.00,,OVC060,0.40,VWS V14.01,2013-05-31 00:12:00,
2013-05-30 19:15:00,74.7,61.3,29.51,SSE,153,16.0,21.0,63,0.00,,,0.40,VWS V15.00,2013-05-31 00:15:00,
2013-05-30 19:17:00,72.7,62.0,29.50,South,182,14.0,19.0,69,0.00,,OVC060,0.40,VWS V14.01,2013-05-31 00:17:00,
2013-05-30 19:22:00,72.5,61.8,29.50,South,169,20.0,20.0,69,0.00,,OVC060,0.40,VWS V14.01,2013-05-31 00:22:00,
2013-05-30 19:27:00,72.5,61.3,29.50,SSE,152,15.0,22.0,68,0.00,,OVC060,0.40,VWS V14.01,2013-05-31 00:27:00,
2013-05-30 19:30:00,72.8,61.6,29.50,SE,138,11.0,28.0,68,0.00,,,0.40,VWS V15.00,2013-05-31 00:30:00,
2013-05-30 19:32:00,72.5,61.8,29.50,SSE,158,16.0,16.0,69,0.00,,OVC080,0.40,VWS V14.01,2013-05-31 00:32:00,
2013-05-30 19:37:00,72.3,61.6,29.50,SSE,168,16.0,25.0,69,0.00,,OVC080,0.40,VWS V14.01,2013-05-31 00:37:00,
2013-05-30 19:42:00,72.3,62.0,29.50,SSE,158,16.0,25.0,70,0.00,,OVC080,0.40,VWS V14.01,2013-05-31 00:42:00,
2013-05-30 19:45:00,72.8,61.6,29.50,SE,144,15.0,22.0,68,0.00,,,0.40,VWS V15.00,2013-05-31 00:45:00,
2013-05-30 19:47:00,72.1,61.8,29.50,SSE,161,13.0,13.0,70,0.00,,OVC080,0.40,VWS V14.01,2013-05-31 00:47:00,
2013-05-30 19:52:00,72.0,62.1,29.50,SSE,150,15.0,16.0,71,0.00,,OVC080,0.40,VWS V14.01,2013-05-31 00:52:00,
2013-05-30 19:57:00,71.8,61.5,29.50,SE,135,14.0,20.0,70,0.00,,OVC080,0.40,VWS V14.01,2013-05-31 00:57:00,
2013-05-30 20:00:00,72.8,61.6,29.50,SSE,158,13.0,25.0,68,0.00,,,0.40,VWS V15.00,2013-05-31 01:00:00,
2013-05-30 20:02:00,71.5,61.6,29.50,SE,146,11.0,15.0,71,0.00,,OVC110,0.40,VWS V14.01,2013-05-31 01:02:00,
2013-05-30 20:07:00,71.1,60.8,29.50,SSE,164,17.0,22.0,70,0.00,,OVC110,0.40,VWS V14.01,2013-05-31 01:07:00,
2013-05-30 20:12:00,70.9,60.6,29.50,SE,142,14.0,22.0,70,0.00,,OVC110,0.40,VWS V14.01,2013-05-31 01:12:00,
2013-05-30 20:15:00,72.7,62.0,29.50,SSE,153,19.0,23.0,69,0.00,,,0.40,VWS V15.00,2013-05-31 01:15:00,
2013-05-30 20:17:00,70.8,60.9,29.50,SSE,151,13.0,17.0,71,0.00,,OVC110,0.40,VWS V14.01,2013-05-31 01:17:00,
2013-05-30 20:22:00,70.4,60.6,29.50,SSE,151,15.0,20.0,71,0.00,,OVC110,0.40,VWS V14.01,2013-05-31 01:22:00,
2013-05-30 20:27:00,70.3,60.9,29.50,SE,139,16.0,20.0,72,0.00,,OVC110,0.40,VWS V14.01,2013-05-31 01:27:00,
2013-05-30 20:30:00,72.5,61.8,29.50,SSE,151,11.0,22.0,69,0.00,,,0.40,VWS V15.00,2013-05-31 01:30:00,
2013-05-30 20:32:00,69.9,60.5,29.50,SSE,158,12.0,15.0,72,0.00,,OVC049,0.40,VWS V14.01,2013-05-31 01:32:00,
2013-05-30 20:37:00,69.6,61.0,29.50,SSE,151,16.0,20.0,74,0.00,,OVC049,0.40,VWS V14.01,2013-05-31 01:37:00,
2013-05-30 20:42:00,68.6,61.5,29.50,SE,143,16.0,21.0,78,0.00,,OVC049,0.40,VWS V14.01,2013-05-31 01:42:00,
2013-05-30 20:45:00,72.1,61.4,29.50,SSE,151,13.0,25.0,69,0.00,,,0.40,VWS V15.00,2013-05-31 01:45:00,
2013-05-30 20:47:00,66.9,61.6,29.52,SE,140,19.0,21.0,83,0.01,,OVC049,0.41,VWS V14.01,2013-05-31 01:47:00,
2013-05-30 20:52:00,66.0,61.7,29.52,SSE,151,17.0,21.0,86,0.01,,OVC049,0.41,VWS V14.01,2013-05-31 01:52:00,
2013-05-30 20:57:00,65.3,62.0,29.52,SE,143,11.0,21.0,89,0.02,,OVC049,0.42,VWS V14.01,2013-05-31 01:57:00,
2013-05-30 21:00:00,71.6,61.3,29.50,SSE,149,15.0,21.0,70,0.00,,,0.40,VWS V15.00,2013-05-31 02:00:00,
2013-05-30 21:02:00,65.0,62.9,29.51,SSE,149,17.0,22.0,93,0.02,,OVC050,0.42,VWS V14.01,2013-05-31 02:02:00,
2013-05-30 21:07:00,64.8,61.8,29.51,SE,143,12.0,22.0,90,0.02,,OVC050,0.42,VWS V14.01,2013-05-31 02:07:00,
2013-05-30 21:12:00,64.7,62.0,29.51,SE,130,14.0,22.0,91,0.02,,OVC050,0.42,VWS V14.01,2013-05-31 02:12:00,
2013-05-30 21:15:00,70.8,60.9,29.50,SSE,161,13.0,22.0,71,0.00,,,0.40,VWS V15.00,2013-05-31 02:15:00,
2013-05-30 21:17:00,64.5,62.1,29.50,ESE,111,12.0,14.0,92,0.02,,OVC050,0.42,VWS V14.01,2013-05-31 02:17:00,
2013-05-30 21:22:00,64.5,62.1,29.50,ESE,123,10.0,16.0,92,0.02,,OVC050,0.42,VWS V14.01,2013-05-31 02:22:00,
2013-05-30 21:28:00,64.5,62.4,29.50,SE,136,8.0,17.0,93,0.02,,OVC050,0.42,VWS V14.01,2013-05-31 02:28:00,
2013-05-30 21:30:00,70.1,60.7,29.50,SE,141,14.0,20.0,72,0.00,,,0.40,VWS V15.00,2013-05-31 02:30:00,
2013-05-30 21:33:00,64.3,62.2,29.50,SE,130,10.0,12.0,93,0.02,,OVC095,0.42,VWS V14.01,2013-05-31 02:33:00,
2013-05-30 21:38:00,64.3,62.2,29.50,SE,129,10.0,12.0,93,0.02,,OVC095,0.42,VWS V14.01,2013-05-31 02:38:00,
2013-05-30 21:43:00,64.2,62.1,29.50,SE,124,10.0,12.0,93,0.02,,OVC095,0.42,VWS V14.01,2013-05-31 02:43:00,
2013-05-30 21:45:00,67.4,61.7,29.52,SE,141,16.0,23.0,82,0.01,,,0.41,VWS V15.00,2013-05-31 02:45:00,
2013-05-30 21:48:00,64.2,62.1,29.50,SE,130,1.0,11.0,93,0.01,,OVC095,0.42,VWS V14.01,2013-05-31 02:48:00,
2013-05-30 21:53:00,64.2,62.1,29.50,SE,129,8.0,13.0,93,0.01,,OVC095,0.42,VWS V14.01,2013-05-31 02:53:00,
2013-05-30 21:58:00,64.2,62.1,29.50,SE,127,9.0,13.0,93,0.01,,OVC095,0.42,VWS V14.01,2013-05-31 02:58:00,
2013-05-30 22:00:00,65.2,61.9,29.51,SE,140,13.0,21.0,89,0.02,,,0.42,VWS V15.00,2013-05-31 03:00:00,
2013-05-30 22:03:00,64.2,62.1,29.51,ESE,119,11.0,11.0,93,0.00,,OVC090,0.42,VWS V14.01,2013-05-31 03:03:00,
2013-05-30 22:08:00,64.2,62.4,29.51,SE,133,10.0,16.0,94,0.00,,OVC090,0.42,VWS V14.01,2013-05-31 03:08:00,
2013-05-30 22:13:00,64.0,62.2,29.51,ESE,111,8.0,16.0,94,0.00,,OVC090,0.42,VWS V14.01,2013-05-31 03:13:00,
2013-05-30 22:15:00,64.7,62.3,29.50,ESE,108,11.0,22.0,92,0.02,,,0.42,VWS V15.00,2013-05-31 03:15:00,
2013-05-30 22:18:00,64.0,62.2,29.51,SE,129,12.0,12.0,94,0.00,,OVC090,0.42,VWS V14.01,2013-05-31 03:18:00,
2013-05-30 22:23:00,64.0,62.2,29.51,SE,130,6.0,14.0,94,0.00,,OVC090,0.42,VWS V14.01,2013-05-31 03:23:00,
2013-05-30 22:28:00,64.0,62.2,29.51,SE,131,11.0,14.0,94,0.00,,OVC090,0.42,VWS V14.01,2013-05-31 03:28:00,
2013-05-30 22:30:00,64.3,62.2,29.50,SE,128,3.0,17.0,93,0.02,,,0.42,VWS V15.00,2013-05-31 03:30:00,
2013-05-30 22:33:00,64.0,62.2,29.51,SE,142,13.0,16.0,94,0.00,,OVC090,0.42,VWS V14.01,2013-05-31 03:33:00,
2013-05-30 22:38:00,64.2,62.4,29.51,SE,142,12.0,16.0,94,0.00,,OVC090,0.42,VWS V14.01,2013-05-31 03:38:00,
2013-05-30 22:43:00,64.2,62.4,29.51,SE,139,13.0,16.0,94,0.00,,OVC080,0.42,VWS V14.01,2013-05-31 03:43:00,
2013-05-30 22:45:00,64.2,62.1,29.50,SE,130,6.0,12.0,93,0.02,,,0.42,VWS V15.00,2013-05-31 03:45:00,
2013-05-30 22:48:00,64.2,62.4,29.51,SSE,153,6.0,14.0,94,0.00,,OVC080,0.42,VWS V14.01,2013-05-31 03:48:00,
2013-05-30 22:53:00,64.2,62.4,29.51,SE,140,11.0,15.0,94,0.00,,OVC080,0.42,VWS V14.01,2013-05-31 03:53:00,
2013-05-30 22:58:00,64.2,62.4,29.51,SSE,152,12.0,19.0,94,0.00,,OVC080,0.42,VWS V14.01,2013-05-31 03:58:00,
2013-05-30 23:00:00,64.2,62.1,29.51,ESE,116,10.0,16.0,93,0.01,,,0.42,VWS V15.00,2013-05-31 04:00:00,
2013-05-30 23:01:00,64.2,62.4,29.51,SSE,151,15.0,19.0,94,0.00,,BKN045,0.42,VWS V14.01,2013-05-31 04:01:00,
2013-05-30 23:05:00,64.3,62.5,29.51,SE,141,15.0,18.0,94,0.00,,BKN045,0.42,VWS V14.01,2013-05-31 04:05:00,
2013-05-30 23:06:00,64.3,62.5,29.51,SE,146,14.0,18.0,94,0.00,,BKN045,0.42,VWS V14.01,2013-05-31 04:06:00,
2013-05-30 23:11:00,64.5,62.7,29.51,SSE,161,17.0,21.0,94,0.00,,BKN045,0.42,VWS V14.01,2013-05-31 04:11:00,
2013-05-30 23:12:00,64.5,62.7,29.51,SE,139,21.0,21.0,94,0.02,,BKN045,0.44,VWS V14.01,2013-05-31 04:12:00,
2013-05-30 23:15:00,64.0,62.2,29.51,SE,130,11.0,16.0,94,0.00,,,0.42,VWS V15.00,2013-05-31 04:15:00,
2013-05-30 23:17:00,64.5,62.7,29.51,SSE,154,19.0,19.0,94,0.04,,BKN045,0.46,VWS V14.01,2013-05-31 04:17:00,
2013-05-30 23:22:00,64.5,63.0,29.51,SSE,163,18.0,19.0,95,0.04,,BKN045,0.46,VWS V14.01,2013-05-31 04:22:00,
2013-05-30 23:27:00,64.5,63.0,29.51,SSE,154,19.0,24.0,95,0.04,,BKN045,0.46,VWS V14.01,2013-05-31 04:27:00,
2013-05-30 23:30:00,64.0,62.2,29.51,SE,144,11.0,18.0,94,0.00,,,0.42,VWS V15.00,2013-05-31 04:30:00,
2013-05-30 23:32:00,64.5,63.0,29.51,SSE,160,13.0,21.0,95,0.04,,OVC110,0.46,VWS V14.01,2013-05-31 04:32:00,
2013-05-30 23:37:00,64.5,63.0,29.51,SSE,158,16.0,25.0,95,0.08,,OVC110,0.50,VWS V14.01,2013-05-31 04:37:00,
2013-05-30 23:42:00,64.5,63.0,29.51,SSE,164,12.0,25.0,95,0.08,,OVC110,0.50,VWS V14.01,2013-05-31 04:42:00,
2013-05-30 23:45:00,64.2,62.4,29.51,SE,135,10.0,19.0,94,0.00,,,0.42,VWS V15.00,2013-05-31 04:45:00,
2013-05-30 23:47:00,64.5,63.0,29.51,SSE,164,13.0,17.0,95,0.08,,OVC110,0.50,VWS V14.01,2013-05-31 04:47:00,
2013-05-30 23:52:00,64.3,62.8,29.51,SSE,154,14.0,19.0,95,0.08,,OVC110,0.50,VWS V14.01,2013-05-31 04:52:00,
2013-05-30 23:57:00,64.3,62.8,29.51,SSE,160,11.0,19.0,95,0.08,,OVC110,0.50,VWS V14.01,2013-05-31 04:57:00,